EW2237 Weather Reports


Display with metric or nautical units.
time (UTC)temp
F
wind
direction
speed
MPH
gust
MPH
rain 1hr
in
rain 24hr
in
rain mn
in
humidity
%
barometer
mb
20260506201829 70 214 3.0 9.0 0.00 0.03 0.03 75 1006.8
20260506201331 70 169 4.0 9.0 0.00 0.03 0.03 77 1006.9
20260506200833 69 145 2.0 8.0 0.00 0.03 0.03 77 1006.9
20260506200313 68 146 2.0 8.0 0.00 0.03 0.03 77 1006.9
20260506195836 68 165 2.0 9.0 0.00 0.03 0.03 78 1007.0
20260506195339 68 86 3.0 9.0 0.00 0.03 0.03 78 1007.1
20260506194820 68 178 4.0 9.0 0.00 0.03 0.03 78 1007.2
20260506194340 68 163 2.0 8.0 0.00 0.03 0.03 78 1007.2
20260506193822 67 139 2.0 8.0 0.00 0.03 0.03 78 1007.2
20260506193326 67 158 3.0 11.0 0.00 0.03 0.03 78 1007.4
20260506192815 67 158 3.0 11.0 0.00 0.03 0.03 78 1007.4
20260506192320 67 149 0.0 4.0 0.00 0.03 0.03 79 1007.5
20260506191823 67 156 1.0 10.0 0.00 0.03 0.03 79 1007.7
20260506191327 67 167 4.0 14.0 0.00 0.03 0.03 79 1007.6
20260506190847 67 163 0.0 14.0 0.00 0.03 0.03 79 1007.7
20260506190315 67 314 2.0 10.0 0.00 0.03 0.03 79 1007.7
20260506185834 67 121 2.0 10.0 0.00 0.03 0.03 79 1007.7
20260506185316 67 112 3.0 9.0 0.00 0.03 0.03 79 1007.7
20260506184821 66 166 1.0 8.0 0.00 0.03 0.03 80 1007.6
20260506184324 66 309 2.0 9.0 0.00 0.03 0.03 80 1007.7
20260506183813 66 144 3.0 9.0 0.00 0.03 0.03 80 1007.8
20260506183316 66 1 2.0 8.0 0.00 0.03 0.03 81 1007.9
20260506182819 66 200 4.0 8.0 0.00 0.03 0.03 81 1007.8
20260506182324 66 193 3.0 10.0 0.00 0.03 0.03 81 1007.9
20260506181827 66 132 3.0 10.0 0.00 0.03 0.03 81 1007.9
20260506181330 66 113 1.0 12.0 0.00 0.03 0.03 81 1008.0
20260506180834 66 155 2.0 12.0 0.00 0.03 0.03 81 1008.0
20260506180318 66 268 2.0 11.0 0.00 0.03 0.03 81 1008.0
20260506175823 66 94 3.0 11.0 0.00 0.03 0.03 82 1008.1
20260506175326 65 209 0.0 10.0 0.00 0.03 0.03 82 1008.0
20260506174829 65 226 3.0 10.0 0.00 0.03 0.03 81 1008.1
20260506174333 66 158 3.0 12.0 0.00 0.03 0.03 81 1008.2
20260506173814 66 21 4.0 12.0 0.00 0.03 0.03 81 1008.2
20260506173319 66 172 5.0 11.0 0.00 0.03 0.03 81 1008.2
20260506172823 66 124 3.0 9.0 0.00 0.03 0.03 80 1008.2
20260506172342 65 182 3.0 14.0 0.00 0.03 0.03 80 1008.2
20260506171823 65 158 3.0 14.0 0.00 0.03 0.03 80 1008.2
20260506171312 65 168 4.0 11.0 0.01 0.03 0.03 80 1008.3
20260506170816 65 242 4.0 10.0 0.01 0.03 0.03 80 1008.4
20260506170321 66 141 4.0 10.0 0.02 0.03 0.03 81 1008.5
20260506165825 66 114 4.0 12.0 0.02 0.03 0.03 81 1008.5
20260506165347 66 184 4.0 12.0 0.02 0.03 0.03 81 1008.5
20260506164850 66 152 4.0 12.0 0.02 0.03 0.03 80 1008.5
20260506164313 66 182 5.0 11.0 0.03 0.03 0.03 81 1008.6
20260506163837 66 170 2.0 12.0 0.03 0.03 0.03 81 1008.6
20260506163320 66 330 3.0 12.0 0.03 0.03 0.03 81 1008.5
20260506162823 66 96 2.0 11.0 0.03 0.03 0.03 81 1008.7
20260506162326 66 136 5.0 11.0 0.03 0.03 0.03 81 1008.7
20260506161830 66 175 2.0 8.0 0.03 0.03 0.03 81 1008.7
20260506161314 65 162 2.0 11.0 0.02 0.02 0.02 80 1008.9
20260506160817 66 104 3.0 11.0 0.02 0.02 0.02 79 1009.1
20260506160320 66 212 1.0 8.0 0.01 0.01 0.01 79 1009.4
20260506155823 66 245 2.0 8.0 0.01 0.01 0.01 78 1009.5
20260506155327 66 152 2.0 11.0 0.01 0.01 0.01 77 1009.7
20260506154814 67 217 3.0 11.0 0.01 0.01 0.01 75 1009.7
20260506154317 67 113 2.0 7.0 0.00 0.00 0.00 75 1009.5
20260506153822 67 152 1.0 7.0 0.00 0.00 0.00 74 1009.6
20260506153326 67 183 2.0 10.0 0.00 0.00 0.00 74 1009.5
20260506152830 67 105 3.0 10.0 0.00 0.00 0.00 73 1009.5
20260506152312 67 205 3.0 8.0 0.00 0.00 0.00 73 1009.4
20260506151813 67 167 2.0 8.0 0.00 0.00 0.00 73 1009.4
20260506151319 68 158 2.0 7.0 0.00 0.00 0.00 72 1009.5
20260506150822 68 133 3.0 7.0 0.00 0.00 0.00 71 1009.4
20260506150346 68 167 1.0 6.0 0.00 0.00 0.00 70 1009.5
20260506145829 69 129 3.0 9.0 0.00 0.00 0.00 68 1009.5
20260506145315 69 155 1.0 9.0 0.00 0.00 0.00 68 1009.4
20260506144818 69 169 3.0 6.0 0.00 0.00 0.00 67 1009.5
20260506144322 69 125 2.0 12.0 0.00 0.00 0.00 67 1009.5
20260506143826 69 115 3.0 12.0 0.00 0.00 0.00 66 1009.4
20260506143328 69 160 2.0 8.0 0.00 0.00 0.00 67 1009.5
20260506142832 69 169 3.0 8.0 0.00 0.00 0.00 67 1009.6
20260506142316 69 58 2.0 13.0 0.00 0.00 0.00 67 1009.6
20260506141819 69 198 4.0 13.0 0.00 0.00 0.00 66 1009.7
20260506141344 69 172 2.0 9.0 0.00 0.00 0.00 66 1009.6
20260506140826 70 99 2.0 8.0 0.00 0.00 0.00 65 1009.4
20260506140330 70 113 3.0 8.0 0.00 0.00 0.00 65 1009.5
20260506135814 70 131 3.0 11.0 0.00 0.00 0.00 64 1009.4
20260506135316 70 143 2.0 11.0 0.00 0.00 0.00 65 1009.4
20260506134819 70 123 2.0 7.0 0.00 0.00 0.00 67 1009.5
20260506134324 69 151 2.0 8.0 0.00 0.00 0.00 67 1009.2
20260506133827 69 155 2.0 8.0 0.00 0.00 0.00 68 1009.4
20260506133332 68 222 3.0 8.0 0.00 0.00 0.00 68 1009.4
20260506132816 68 117 2.0 6.0 0.00 0.00 0.00 68 1009.4
20260506132318 68 144 1.0 7.0 0.00 0.00 0.00 68 1009.5
20260506131822 68 233 2.0 17.0 0.00 0.00 0.00 68 1009.5
20260506131327 68 233 3.0 17.0 0.00 0.00 0.00 68 1009.5
20260506130829 68 90 3.0 12.0 0.00 0.00 0.00 68 1009.6
20260506130313 68 176 2.0 11.0 0.00 0.00 0.00 68 1009.7
20260506125819 68 11 4.0 14.0 0.00 0.00 0.00 67 1009.7
20260506125322 68 140 4.0 14.0 0.00 0.00 0.00 68 1009.7
20260506124826 68 113 4.0 13.0 0.00 0.00 0.00 69 1009.7
20260506124331 68 198 4.0 9.0 0.00 0.00 0.00 70 1009.8
20260506123816 68 124 3.0 10.0 0.00 0.00 0.00 71 1009.7
20260506123319 68 132 4.0 10.0 0.00 0.00 0.00 71 1009.8
20260506122824 68 159 3.0 9.0 0.00 0.00 0.00 71 1009.7
20260506122329 67 204 3.0 11.0 0.00 0.00 0.00 72 1009.8
20260506121834 67 176 3.0 11.0 0.00 0.00 0.00 72 1009.6
20260506121337 67 146 4.0 10.0 0.00 0.00 0.00 72 1009.7
20260506120819 67 164 3.0 8.0 0.00 0.00 0.00 73 1009.7
20260506120324 67 215 4.0 9.0 0.00 0.00 0.00 73 1009.6
20260506115828 66 153 4.0 9.0 0.00 0.00 0.00 74 1009.6
20260506115331 66 112 1.0 6.0 0.00 0.00 0.00 75 1009.6
20260506114815 66 194 3.0 11.0 0.00 0.00 0.00 76 1009.7
20260506114320 65 145 2.0 11.0 0.00 0.00 0.00 75 1009.6
20260506113823 65 218 2.0 13.0 0.00 0.00 0.00 75 1009.5
20260506113327 65 143 4.0 13.0 0.00 0.00 0.00 75 1009.6
20260506112829 65 140 2.0 13.0 0.00 0.00 0.00 76 1009.6
20260506112332 65 177 3.0 8.0 0.00 0.00 0.00 76 1009.6
20260506111816 65 116 3.0 7.0 0.00 0.00 0.00 76 1009.5
20260506111316 65 157 4.0 8.0 0.00 0.00 0.00 76 1009.6
20260506110838 65 155 2.0 8.0 0.00 0.00 0.00 77 1009.5
20260506110340 65 171 4.0 8.0 0.00 0.00 0.00 77 1009.6
20260506105823 65 153 3.0 8.0 0.00 0.00 0.00 77 1009.5
20260506105327 65 224 4.0 12.0 0.00 0.00 0.00 77 1009.6
20260506104828 65 157 3.0 12.0 0.00 0.00 0.00 77 1009.6
20260506104332 64 221 2.0 7.0 0.00 0.00 0.00 78 1009.6
20260506103836 64 153 1.0 7.0 0.00 0.00 0.00 78 1009.5
20260506102826 64 131 1.0 7.0 0.00 0.00 0.00 80 1009.6
20260506102329 63 162 0.0 7.0 0.00 0.00 0.00 80 1009.6
20260506101813 63 124 1.0 7.0 0.00 0.00 0.00 80 1009.6
20260506101318 63 66 3.0 8.0 0.00 0.00 0.00 80 1009.6
20260506100822 63 159 4.0 8.0 0.00 0.00 0.00 80 1009.5
20260506100325 63 141 2.0 6.0 0.00 0.00 0.00 80 1009.5
20260506095830 63 170 2.0 6.0 0.00 0.00 0.00 80 1009.5
20260506095353 63 159 2.0 6.0 0.00 0.00 0.00 80 1009.6
20260506094815 63 158 2.0 6.0 0.00 0.00 0.00 80 1009.7
20260506094340 63 168 2.0 5.0 0.00 0.00 0.00 80 1009.7
20260506093822 63 241 3.0 5.0 0.00 0.00 0.00 80 1009.6
20260506093328 64 211 2.0 5.0 0.00 0.00 0.00 80 1009.5
20260506092852 64 147 1.0 5.0 0.00 0.00 0.00 79 1009.5
20260506092313 64 160 1.0 6.0 0.00 0.00 0.00 79 1009.4
20260506091817 64 162 2.0 6.0 0.00 0.00 0.00 79 1009.4
20260506091318 64 167 2.0 9.0 0.00 0.00 0.00 78 1009.5
20260506090816 64 157 1.0 9.0 0.00 0.00 0.00 78 1009.5
20260506090339 65 167 2.0 9.0 0.00 0.00 0.00 78 1009.5
20260506085842 65 137 3.0 8.0 0.00 0.00 0.00 77 1009.5
20260506085324 65 94 3.0 9.0 0.00 0.00 0.00 77 1009.5
20260506084828 65 155 4.0 9.0 0.00 0.00 0.00 77 1009.6
20260506084332 65 167 3.0 7.0 0.00 0.00 0.00 77 1009.6
20260506083815 65 137 3.0 9.0 0.00 0.00 0.00 77 1009.5
20260506083318 66 190 4.0 11.0 0.00 0.00 0.00 77 1009.6
20260506082821 66 155 4.0 11.0 0.00 0.00 0.00 77 1009.5
20260506082318 66 155 3.0 11.0 0.00 0.00 0.00 77 1009.6
20260506081822 66 146 3.0 6.0 0.00 0.00 0.00 77 1009.7
20260506081328 66 148 3.0 10.0 0.00 0.00 0.00 77 1009.7
20260506080831 66 172 5.0 10.0 0.00 0.00 0.00 77 1009.7
20260506080315 66 248 2.0 8.0 0.00 0.00 0.00 76 1009.7
20260506073313 66 152 2.0 8.0 0.00 0.00 0.00 76 1009.7
20260506072815 66 157 3.0 8.0 0.00 0.00 0.00 76 1009.7
20260506072320 66 159 3.0 6.0 0.00 0.00 0.00 76 1009.7
20260506071824 66 179 2.0 6.0 0.00 0.00 0.00 76 1009.8
20260506071347 66 226 2.0 8.0 0.00 0.00 0.00 76 1009.8
20260506070829 66 161 2.0 8.0 0.00 0.00 0.00 76 1009.9
20260506070334 66 153 1.0 5.0 0.00 0.00 0.00 76 1009.9
20260506062342 66 153 0.0 7.0 0.00 0.00 0.00 75 1010.1
20260506061824 67 154 2.0 7.0 0.00 0.00 0.00 75 1010.0
20260506061326 67 148 1.0 6.0 0.00 0.00 0.00 75 1009.9
20260506060831 67 171 1.0 6.0 0.00 0.00 0.00 75 1009.9
20260506060314 67 172 1.0 6.0 0.00 0.00 0.00 74 1009.9
20260506051327 68 144 3.0 8.0 0.00 0.00 0.00 73 1010.2
20260506050830 68 182 3.0 8.0 0.00 0.00 0.00 73 1010.3
20260506050315 68 176 3.0 9.0 0.00 0.00 0.00 72 1010.3
20260506044825 68 204 3.0 11.0 0.00 0.00 0.00 71 1010.3
20260506044330 68 194 3.0 11.0 0.00 0.00 0.00 70 1010.3
20260506043813 68 193 4.0 11.0 0.00 0.00 0.00 70 1010.3
20260506043318 68 195 4.0 12.0 0.00 0.00 0.00 70 1010.3
20260506042841 69 148 5.0 12.0 0.00 0.00 0.00 70 1010.3
20260506042323 69 217 4.0 11.0 0.00 0.00 0.00 69 1010.4
20260506041826 68 166 4.0 10.0 0.00 0.00 0.00 69 1010.5
20260506041328 68 163 4.0 9.0 0.00 0.00 0.00 69 1010.4
20260506040833 68 160 1.0 6.0 0.00 0.00 0.00 69 1010.4
20260506040314 68 170 3.0 9.0 0.00 0.00 0.00 69 1010.4
20260506035816 68 191 3.0 9.0 0.00 0.00 0.00 69 1010.3
20260506035332 68 247 2.0 9.0 0.00 0.00 0.00 68 1010.3
20260506034834 68 232 3.0 9.0 0.00 0.00 0.00 68 1010.2
20260506034318 68 167 2.0 9.0 0.00 0.00 0.00 68 1010.3
20260506033822 68 214 3.0 9.0 0.00 0.00 0.00 68 1010.3
20260506033326 68 203 3.0 9.0 0.00 0.00 0.00 67 1010.2
20260506032830 69 160 4.0 9.0 0.00 0.00 0.00 67 1010.2
20260506032315 69 133 3.0 9.0 0.00 0.00 0.00 67 1010.3
20260506031817 69 213 5.0 11.0 0.00 0.00 0.00 66 1010.3
20260506031320 69 160 3.0 11.0 0.00 0.00 0.00 66 1010.3
20260506030823 69 174 3.0 9.0 0.00 0.00 0.00 66 1010.3
20260506030327 69 150 1.0 10.0 0.00 0.00 0.00 66 1010.3
20260506025843 69 196 3.0 10.0 0.00 0.00 0.00 65 1010.3
20260506025327 69 126 3.0 12.0 0.00 0.00 0.00 65 1010.3
20260506024814 69 226 2.0 12.0 0.00 0.00 0.00 65 1010.4
20260506024338 69 210 4.0 9.0 0.00 0.00 0.00 64 1010.3
20260506023821 69 167 3.0 14.0 0.00 0.00 0.00 64 1010.4
20260506023324 69 145 4.0 14.0 0.00 0.00 0.00 64 1010.4
20260506022828 69 185 4.0 10.0 0.00 0.00 0.00 63 1010.4
20260506022331 69 147 5.0 10.0 0.00 0.00 0.00 63 1010.3
20260506021814 69 186 4.0 11.0 0.00 0.00 0.00 63 1010.3
20260506021339 70 245 4.0 11.0 0.00 0.00 0.00 63 1010.2
20260506020820 70 135 4.0 10.0 0.00 0.00 0.00 63 1010.3
20260506020322 70 219 3.0 9.0 0.00 0.00 0.00 62 1010.2
20260506015844 70 210 3.0 9.0 0.00 0.00 0.00 62 1010.1
20260506015327 70 177 3.0 8.0 0.00 0.00 0.00 62 1010.1
20260506014832 70 169 2.0 8.0 0.00 0.00 0.00 61 1010.1
20260506014319 70 169 3.0 9.0 0.00 0.00 0.00 61 1010.1
20260506013842 71 165 2.0 9.0 0.00 0.00 0.00 60 1010.0
20260506013326 71 168 4.0 10.0 0.00 0.00 0.00 60 1009.9
20260506012829 71 171 4.0 10.0 0.00 0.00 0.00 59 1009.9
20260506012331 72 224 5.0 9.0 0.00 0.00 0.00 58 1009.8
20260506011815 72 176 4.0 9.0 0.00 0.00 0.00 57 1009.9
20260506011321 72 153 3.0 9.0 0.00 0.00 0.00 55 1009.7
20260506010824 73 150 2.0 11.0 0.00 0.00 0.00 54 1009.6
20260506010350 73 186 4.0 11.0 0.00 0.00 0.00 53 1009.6
20260506005812 74 152 3.0 10.0 0.00 0.00 0.00 51 1009.5
20260506005316 74 122 5.0 10.0 0.00 0.00 0.00 50 1009.6
20260506004817 74 171 4.0 9.0 0.00 0.00 0.00 48 1009.5
20260506004323 75 168 2.0 11.0 0.00 0.00 0.00 47 1009.5
20260506003825 75 166 4.0 11.0 0.00 0.00 0.00 47 1009.4
20260506003322 75 170 3.0 11.0 0.00 0.00 0.00 46 1009.4
20260506002826 75 128 4.0 11.0 0.00 0.00 0.00 46 1009.3
20260506002330 75 151 3.0 6.0 0.00 0.00 0.00 45 1009.2
20260506001834 76 179 2.0 7.0 0.00 0.00 0.00 45 1009.1
20260506001316 76 157 4.0 16.0 0.00 0.00 0.00 44 1009.0
20260506000820 76 160 5.0 16.0 0.00 0.00 0.00 44 1008.9
20260506000345 76 206 4.0 11.0 0.00 0.00 0.00 44 1008.9
20260505235828 76 205 3.0 11.0 0.00 0.00 0.00 44 1008.9
20260505235312 76 17 6.0 11.0 0.00 0.00 0.00 43 1008.8
20260505234816 77 172 4.0 9.0 0.00 0.00 0.00 43 1008.9
20260505234320 77 177 4.0 11.0 0.00 0.00 0.00 43 1008.9
20260505233824 77 212 5.0 11.0 0.00 0.00 0.00 43 1008.8
20260505233327 77 215 3.0 9.0 0.00 0.00 0.00 43 1008.9
20260505232829 78 203 5.0 11.0 0.00 0.00 0.00 42 1008.8
20260505232314 78 167 3.0 9.0 0.00 0.00 0.00 42 1008.8
20260505231818 78 150 4.0 10.0 0.00 0.00 0.00 41 1008.7
20260505231321 78 213 3.0 10.0 0.00 0.00 0.00 41 1008.6
20260505230827 79 150 4.0 13.0 0.00 0.00 0.00 41 1008.7
20260505230312 79 155 4.0 13.0 0.00 0.00 0.00 41 1008.6
20260505225816 79 99 3.0 13.0 0.00 0.00 0.00 41 1008.6
20260505225320 79 154 4.0 18.0 0.00 0.00 0.00 41 1008.5
20260505224824 79 153 6.0 18.0 0.00 0.00 0.00 41 1008.5
20260505224329 80 139 5.0 13.0 0.00 0.00 0.00 41 1008.5
20260505223812 80 124 7.0 13.0 0.00 0.00 0.00 40 1008.5
20260505223316 80 224 4.0 13.0 0.00 0.00 0.00 41 1008.6
20260505222838 80 150 6.0 13.0 0.00 0.00 0.00 41 1008.6
20260505222321 80 146 3.0 9.0 0.00 0.00 0.00 41 1008.7
20260505221846 80 112 5.0 9.0 0.00 0.00 0.00 41 1008.7
20260505221330 80 141 3.0 10.0 0.00 0.00 0.00 40 1008.7
20260505220813 80 330 5.0 16.0 0.00 0.00 0.00 40 1008.7
20260505220317 81 128 7.0 16.0 0.00 0.00 0.00 39 1008.6
20260505215842 81 124 6.0 14.0 0.00 0.00 0.00 39 1008.5
20260505215346 82 278 4.0 11.0 0.00 0.00 0.00 39 1008.4
20260505214830 82 155 5.0 14.0 0.00 0.00 0.00 39 1008.4
20260505214315 83 148 4.0 14.0 0.00 0.00 0.00 38 1008.4
20260505213819 83 149 3.0 8.0 0.00 0.00 0.00 38 1008.6
20260505213324 83 145 2.0 15.0 0.00 0.00 0.00 39 1008.5
20260505212827 82 117 5.0 15.0 0.00 0.00 0.00 37 1008.5
20260505212311 82 116 5.0 15.0 0.00 0.00 0.00 36 1008.4
20260505211815 83 175 5.0 15.0 0.00 0.00 0.00 36 1008.3
20260505211320 83 134 4.0 12.0 0.00 0.00 0.00 36 1008.4
20260505210823 83 105 3.0 12.0 0.00 0.00 0.00 35 1008.4
20260505210327 83 117 5.0 12.0 0.00 0.00 0.00 34 1008.5
20260505205829 83 110 6.0 12.0 0.00 0.00 0.00 34 1008.4
20260505205314 83 115 4.0 15.0 0.00 0.00 0.00 33 1008.5
20260505204818 84 135 5.0 15.0 0.00 0.00 0.00 34 1008.3
20260505204322 84 127 7.0 13.0 0.00 0.00 0.00 33 1008.4
20260505203846 83 79 3.0 15.0 0.00 0.00 0.00 35 1008.3
20260505203327 83 134 6.0 15.0 0.00 0.00 0.00 33 1008.3
20260505202849 83 276 5.0 12.0 0.00 0.00 0.00 32 1008.3
20260505202312 83 148 6.0 19.0 0.00 0.00 0.00 32 1008.4